Weather History for West Palm Beach, FL

Change the Weather History Date:

Monday, July 22, 2013

  Actual Average Record
Temperature  
Mean Temperature 85 °F 83 °F  
Max Temperature 92 °F 90 °F 99 °F (1942)
Min Temperature 78 °F 76 °F 67 °F (1902)
Degree Days  
Heating Degree Days 0 0  
Month to date heating degree days 0 0  
Since 1 June heating degree days 0 0  
Since 1 July heating degree days 0 0  
Cooling Degree Days 20 18  
Month to date cooling degree days 394 385  
Year to date cooling degree days 2068 1984  
Since 1 June cooling degree days 883 875  
Growing Degree Days 34 (Base 50)    
Moisture  
Dew Point 72 °F    
Average Humidity 67    
Maximum Humidity 85    
Minimum Humidity 49    
Precipitation  
Precipitation 0.00 in 0.18 in 2.60 in (1973)
Month to date precipitation 5.52 4.17  
Year to date precipitation 43.20 31.18  
Snow  
Snow 0.00 in - - ()
Month to date snowfall 0.0  
Since 1 June snowfall 0.0  
Since 1 July snowfall 0.0  
Snow Depth 0.00 in    
Sea Level Pressure  
Sea Level Pressure 30.11 in    
Wind  
Wind Speed 8 mph (SSE)    
Max Wind Speed 17 mph    
Max Gust Speed 22 mph    
Visibility 10 miles    
Events      
T = Trace of Precipitation, MM = Missing Value Source: NWS Daily Summary

Daily Weather History Graph

Daily Weather History Graph

Search for Another Location

Airport:

Trip Planner

Search our weather history database for the weather conditions in past years. The results will help you decide how hot, cold, wet, or windy it might be!

Date:

Astronomy

Jul. 22, 2013 Rise Set
Actual Time 6:40 AM EDT 8:13 PM EDT
Civil Twilight 6:14 AM EDT 8:38 PM EDT
Nautical Twilight 5:44 AM EDT 9:09 PM EDT
Astronomical Twilight 5:12 AM EDT 9:40 PM EDT
Moon 8:07 PM EDT (7/22) 6:29 AM EDT (7/22)
Length of Visible Light 14h 23m
Length of Day
13h 33m
Full, 100% of the Moon is Illuminated
Jul 22
Full
Jul 22
Full
Jul 29
Last Quarter
Aug 6
New
Aug 14
First Quarter

Hourly Weather History & Observations

Time (EDT) Temp. Heat Index Dew Point Humidity Pressure Visibility Wind Dir Wind Speed Gust Speed Precip Events Conditions
12:53 AM 79.0 °F - 71.1 °F 77% 30.13 in 10.0 mi Calm Calm - N/A   Overcast
1:53 AM 79.0 °F - 72.0 °F 79% 30.11 in 10.0 mi SE 4.6 mph - N/A   Overcast
2:53 AM 78.1 °F - 73.0 °F 84% 30.09 in 10.0 mi SW 3.5 mph - N/A   Mostly Cloudy
3:53 AM 78.1 °F - 73.0 °F 84% 30.10 in 10.0 mi NNW 5.8 mph - N/A   Overcast
4:53 AM 80.1 °F 84.5 °F 73.9 °F 81% 30.08 in 10.0 mi ESE 5.8 mph - N/A   Overcast
5:53 AM 80.1 °F 84.2 °F 73.0 °F 79% 30.09 in 10.0 mi SSE 4.6 mph - N/A   Mostly Cloudy
6:53 AM 80.1 °F 84.2 °F 73.0 °F 79% 30.10 in 10.0 mi SE 4.6 mph - N/A   Mostly Cloudy
7:53 AM 82.9 °F 89.4 °F 73.9 °F 74% 30.12 in 10.0 mi SE 5.8 mph - N/A   Mostly Cloudy
8:53 AM 84.0 °F 91.2 °F 73.9 °F 72% 30.13 in 10.0 mi SSE 10.4 mph - N/A   Mostly Cloudy
9:53 AM 86.0 °F 93.0 °F 73.0 °F 65% 30.14 in 10.0 mi SSE 10.4 mph - N/A   Mostly Cloudy
10:53 AM 89.1 °F 97.0 °F 73.0 °F 59% 30.14 in 10.0 mi SSE 10.4 mph - N/A   Mostly Cloudy
11:53 AM 90.0 °F 96.9 °F 72.0 °F 55% 30.14 in 10.0 mi SE 8.1 mph - N/A   Mostly Cloudy
12:53 PM 90.0 °F 96.4 °F 71.1 °F 54% 30.14 in 10.0 mi SSE 10.4 mph 16.1 mph N/A   Mostly Cloudy
1:53 PM 91.0 °F 97.6 °F 71.1 °F 52% 30.12 in 10.0 mi SSE 12.7 mph 17.3 mph N/A   Scattered Clouds
2:53 PM 91.0 °F 96.6 °F 70.0 °F 50% 30.11 in 10.0 mi SSE 11.5 mph - N/A   Scattered Clouds
3:53 PM 91.0 °F 97.6 °F 71.1 °F 52% 30.09 in 10.0 mi SSE 12.7 mph 19.6 mph N/A   Scattered Clouds
4:53 PM 90.0 °F 95.4 °F 70.0 °F 52% 30.08 in 10.0 mi ESE 11.5 mph - N/A   Scattered Clouds
5:53 PM 89.1 °F 95.0 °F 71.1 °F 55% 30.07 in 10.0 mi SE 12.7 mph - N/A   Scattered Clouds
6:53 PM 87.1 °F 93.6 °F 72.0 °F 61% 30.08 in 10.0 mi SE 11.5 mph - N/A   Scattered Clouds
7:53 PM 84.9 °F 91.4 °F 73.0 °F 67% 30.09 in 10.0 mi SE 8.1 mph - N/A   Scattered Clouds
8:53 PM 84.0 °F 90.2 °F 73.0 °F 69% 30.09 in 10.0 mi SE 9.2 mph - N/A   Scattered Clouds
9:53 PM 84.0 °F 89.6 °F 72.0 °F 67% 30.10 in 10.0 mi SSE 6.9 mph - N/A   Scattered Clouds
10:53 PM 82.9 °F 88.0 °F 72.0 °F 69% 30.10 in 10.0 mi SSE 8.1 mph - N/A   Partly Cloudy
11:53 PM 82.9 °F 88.0 °F 72.0 °F 69% 30.11 in 10.0 mi South 4.6 mph - N/A   Scattered Clouds